Regional Weather Roundup
Issued by NWS

Home | Current Version | Previous Version | Text Only | Print | Product List | Glossary On
Versions: 1 2 3 4 5 6 7 8 9 10 11 12 13 14 15 16 17 18 19 20 21 22 23 24 25 26 27 28 29 30 31 32 33 34 35 36 37 38 39 40 41 42 43 44 45 46 47 48 49 50
000
ASUS43 KOAX 261510
RWRNE

WEATHER ROUNDUP FOR NEBRASKA
NATIONAL WEATHER SERVICE OMAHA NE
1000 AM CDT WED APR 26 2017

NOTES: SATELLITE DATA IS BEING USED TO AUGMENT CLOUD COVER ABOVE
       12000 FEET.
       "FAIR" INDICATES FEW OR NO CLOUDS BELOW 12,000 FEET WITH NO
       SIGNIFICANT WEATHER AND/OR OBSTRUCTIONS TO VISIBILITY.

  * THESE STATIONS DO NOT REPORT WEATHER SUCH AS RAIN...SNOW OR FOG.

NEZ001>004-019>022-054>056-261600-
NEBRASKA PANHANDLE

CITY           SKY/WX    TMP DP  RH WIND       PRES   REMARKS
SCOTTSBLUFF    MOSUNNY   36  27  69 NW5       29.84S WCI  32
ALLIANCE       CLOUDY    30  26  85 N14       29.83S WCI  19
CHADRON        CLOUDY    30  26  85 NE5       29.87F WCI  25
KIMBALL        SUNNY     40  29  66 N9        29.82S WCI  34
SIDNEY         MOSUNNY   37  28  70 N15       29.82F WCI  28
$$

NEZ057>060-069>072-079>082-261600-
SOUTHWEST NEBRASKA

CITY           SKY/WX    TMP DP  RH WIND       PRES   REMARKS
NORTH PLATTE   CLOUDY    35  27  72 NW17G30   29.80F WCI  25
IMPERIAL       CLOUDY    34  26  72 N18       29.82S WCI  23
LEXINGTON      CLOUDY    37  29  74 N20G29    29.77S WCI  26
MCCOOK         CLOUDY    38  28  67 NW22G28   29.80S WCI  27
OGALLALA       CLOUDY    36  28  71 NW17      29.82F WCI  26
$$

NEZ005>010-023>029-035>040-094-261600-
NORTH CENTRAL NEBRASKA

CITY           SKY/WX    TMP DP  RH WIND       PRES   REMARKS
VALENTINE      CLOUDY    34  26  72 NW20G32   29.80F WCI  23
AINSWORTH      CLOUDY    33  29  86 NW25G32   29.77F WCI  19
BROKEN BOW     CLOUDY    36  28  73 NW25G37   29.75S WCI  24
O`NEILL        CLOUDY    34  29  83 NW22G29   29.74F WCI  22
ORD            CLOUDY    35  28  75 NW23G29   29.73F WCI  23
THEDFORD       CLOUDY    33  28  82 NW21G30   29.80S WCI  21
$$

NEZ041-046>049-061>064-073>077-083>087-261600-
SOUTH CENTRAL NEBRASKA

CITY           SKY/WX    TMP DP  RH WIND       PRES   REMARKS
GRAND ISLAND   CLOUDY    37  30  75 NW21      29.74R WCI  26
AURORA         CLOUDY    37  31  79 N22       29.72S WCI  27
HASTINGS       CLOUDY    38  29  70 NW24      29.74S WCI  27
HEBRON         CLOUDY    39  30  69 N15G23    29.73S WCI  31
HOLDREGE       CLOUDY    38  29  70 N21G28    29.76R WCI  27
KEARNEY *      CLOUDY    37  27  65 N17G26    29.75R WCI  28
YORK           CLOUDY    37  32  81 NW21      29.71R WCI  27
$$

NEZ011>018-030>034-042>045-261600-
NORTHEAST NEBRASKA

CITY           SKY/WX    TMP DP  RH WIND       PRES   REMARKS
NORFOLK        CLOUDY    36  29  75 NW20G32   29.66F WCI  25
ALBION         CLOUDY    37  31  78 NW21G31   29.70F WCI  26
BLAIR          CLOUDY    37  33  85 NW21      29.66S WCI  26
FREMONT        CLOUDY    37  32  80 NW16G24   29.69S WCI  28
TEKAMAH        CLOUDY    38  32  79 NW22      29.67R WCI  27
WAYNE          CLOUDY    35  33  93 NW20G33   29.68S WCI  24
$$

NEZ050>053-065>068-078-088>093-261600-
SOUTHEAST NEBRASKA

CITY           SKY/WX    TMP DP  RH WIND       PRES   REMARKS
LINCOLN        CLOUDY    40  30  67 N17G25    29.71S WCI  31
OMAHA EPPLEY   CLOUDY    39  33  79 NW17G28   29.65F WCI  30
BEATRICE       CLOUDY    38  34  82 NW15      29.71R WCI  30
FALLS CITY     CLOUDY    42  34  73 NW20      29.65S
NEBRASKA CITY  CLOUDY    39  30  70 NW16      29.68R WCI  30
PLATTSMOUTH    CLOUDY    39  32  75 NW16G22   29.64F WCI  31
$$

NEZ044-045-051>053-067-261600-
OMAHA AREA

CITY           SKY/WX    TMP DP  RH WIND       PRES   REMARKS
OMAHA EPPLEY   CLOUDY    39  33  79 NW17G28   29.65F WCI  30
BLAIR          CLOUDY    37  33  85 NW21      29.66S WCI  26
FREMONT        CLOUDY    37  32  80 NW16G24   29.69S WCI  28
MILLARD        CLOUDY    40  33  76 NW16G24   29.67F WCI  32
OFFUTT AFB     CLOUDY    39  32  77 NW15G25   29.64F WCI  30
PLATTSMOUTH    CLOUDY    39  32  75 NW16G22   29.64F WCI  31
WAHOO          CLOUDY    38  30  72 NW20      29.69R WCI  29
$$



USA.gov is the U.S. government's official web portal to all federal, state and local government web resources and services.